Regional Weather Roundup
Issued by NWS Cleveland, OH

Home | Current Version | Previous Version | Graphics & Text | Print | Product List | Glossary On
Versions: 1 2 3 4 5 6 7 8 9 10 11 12 13 14 15 16 17 18 19 20 21 22 23 24 25 26 27 28 29 30 31 32 33 34 35 36 37 38 39 40 41 42 43 44 45 46 47 48 49 50
000
ASUS41 KCLE 270510
RWRCLE
OHIO REGIONAL WEATHER ROUNDUP
NATIONAL WEATHER SERVICE CLEVELAND, OH
100 AM EDT MON APR 27 2015

NOTE: "FAIR" INDICATES FEW OR NO CLOUDS BELOW 12,000 FEET WITH NO
SIGNIFICANT WEATHER AND/OR OBSTRUCTIONS TO VISIBILITY.

OHZ001>008-015>018-024>027-034-035-043-044-270600-
   NORTHWEST OHIO

CITY           SKY/WX    TMP DP  RH WIND       PRES   REMARKS
DEFIANCE       CLOUDY    48  35  60 E3        29.94R
FINDLAY        CLOUDY    45  32  60 E6        29.92R
TOLEDO EXPRESS CLOUDY    44  34  67 E7        29.95R
TOLEDO EXEC    MOCLDY    44  32  62 NE7       29.96R
LIMA           CLOUDY    47  33  58 SE6       29.91S
$$

OHZ009>014-019>023-028>033-038-089-270600-
   NORTHEAST OHIO

CITY           SKY/WX    TMP DP  RH WIND       PRES   REMARKS
CLE-HOPKINS    PTCLDY    41  32  70 N12       29.93R
CLE-LAKEFRONT  MOCLDY    42  34  73 NW15      29.90R
CUY CO. ARPT   NOT AVBL
LORAIN-ELYRIA  CLEAR     40  33  76 N10       29.92R
ASHTABULA      CLOUDY    40  33  76 NW5       29.87S
AKRON-CANTON   CLEAR     36  28  73 NW7       29.87F
WOOSTER        CLEAR     34  30  85 NW3       29.89S
MANSFIELD      FAIR      37  30  75 NW3       29.90S
YOUNGSTOWN     PTCLDY    38  30  73 NW6       29.85S
$$

OHZ042-051>053-060>062-070>072-077>081-270600-
  SOUTHWEST OHIO

CITY           SKY/WX    TMP DP  RH WIND       PRES   REMARKS
CINC-COVINGTON CLEAR     45  34  65 N3        29.92R
CINC-LUNKEN    CLEAR     41  38  89 CALM      29.93R
HAMILTON       CLEAR     39  36  89 CALM      29.93S
DAYTON         CLOUDY    43  33  68 N3        29.93R
WRIGHT-PAT AFB PTCLDY    41  35  77 CALM      29.92R
DAYTON GENERAL CLEAR     44  31  60 NE3       29.91R
WILMINGTON     CLEAR     42  31  64 N6        29.91R
$$

OHZ036-037-039>041-045>050-054>059-063>069-073>076-082>088-270600-
  CENTRAL AND SOUTHEAST OHIO

CITY           SKY/WX    TMP DP  RH WIND       PRES   REMARKS
COLUMBUS       CLEAR     42  32  67 N3        29.90S
OSU AIRPORT    CLEAR     39  30  70 NW6       29.91R
BOLTON FIELD   CLEAR     39  32  75 CALM      29.91S
RICKENBACK AFB CLEAR     43  30  61 N5        29.90S
NEWARK         CLEAR     40  31  70 CALM      29.90R
MARION         CLEAR     38  30  73 CALM      29.92R
LANCASTER      CLEAR     38  33  82 CALM      29.90S
ZANESVILLE     CLEAR     42  29  59 N3        29.88S
NEW PHILLY     CLEAR     42  32  67 NW3       29.88S
$$


USA.gov is the U.S. government's official web portal to all federal, state and local government web resources and services.